DW9966 Weather Reports


time (UTC)temp
F
wind
direction
speed
knots
gust
knots
rain 1hr
in
rain 24hr
in
rain mn
in
humidity
%
barometer
mb
20260506224205 63 221 3.5 13.0 0.00 0.00 0.00 65 1007.4
20260506223705 63 202 3.5 13.0 0.00 0.00 0.00 65 1007.4
20260506223205 63 221 4.3 13.0 0.00 0.00 0.00 65 1007.2
20260506222705 63 217 3.5 12.2 0.00 0.00 0.00 64 1007.0
20260506222205 64 202 3.5 12.2 0.00 0.00 0.00 64 1007.0
20260506221706 64 220 2.6 12.2 0.00 0.00 0.00 64 1007.1
20260506221205 64 200 3.5 12.2 0.00 0.00 0.00 64 1007.1
20260506220705 64 219 4.3 12.2 0.00 0.00 0.00 63 1007.0
20260506215706 65 202 3.5 13.0 0.00 0.00 0.00 63 1007.1
20260506215205 65 266 3.5 13.0 0.00 0.00 0.00 63 1007.1
20260506214705 65 186 3.5 13.0 0.00 0.00 0.00 63 1007.1
20260506214206 65 196 2.6 12.2 0.00 0.00 0.00 63 1007.1
20260506213705 65 222 2.6 7.0 0.00 0.00 0.00 63 1007.3
20260506213206 65 192 1.7 7.0 0.00 0.00 0.00 63 1007.2
20260506212705 65 198 1.7 7.0 0.00 0.00 0.00 63 1007.1
20260506212206 65 211 0.9 7.0 0.00 0.00 0.00 63 1007.1
20260506211705 65 219 0.9 6.1 0.00 0.00 0.00 63 1007.1
20260506211206 64 223 0.9 5.2 0.00 0.00 0.00 63 1007.0
20260506210706 64 218 0.9 7.0 0.00 0.00 0.00 62 1006.9
20260506210206 65 209 0.9 7.0 0.00 0.00 0.00 62 1006.9
20260506205705 65 185 1.7 7.0 0.00 0.00 0.00 62 1006.7
20260506204705 65 213 1.7 11.3 0.00 0.00 0.00 61 1006.7
20260506204206 65 200 1.7 12.2 0.00 0.00 0.00 61 1006.7
20260506203705 65 218 2.6 12.2 0.00 0.00 0.00 61 1006.7
20260506202213 66 195 3.5 13.0 0.00 0.00 0.00 60 1006.7
20260506201705 66 217 4.3 10.4 0.00 0.00 0.00 60 1006.7
20260506200705 66 194 3.5 10.4 0.00 0.00 0.00 60 1006.7
20260506195705 66 198 3.5 11.3 0.00 0.00 0.00 60 1006.8
20260506195205 66 217 2.6 11.3 0.00 0.00 0.00 60 1006.7
20260506194706 66 211 2.6 9.6 0.00 0.00 0.00 60 1006.7
20260506194205 66 205 2.6 9.6 0.00 0.00 0.00 59 1006.7
20260506193705 66 221 1.7 8.7 0.00 0.00 0.00 59 1006.7
20260506193205 66 209 2.6 9.6 0.00 0.00 0.00 59 1006.8
20260506192705 66 208 2.6 9.6 0.00 0.00 0.00 58 1006.7
20260506192205 67 218 2.6 13.0 0.00 0.00 0.00 58 1006.6
20260506191705 67 192 4.3 13.0 0.00 0.00 0.00 57 1006.6
20260506191206 67 219 4.3 13.0 0.00 0.00 0.00 57 1006.5
20260506190729 67 202 3.5 12.2 0.00 0.00 0.00 57 1006.5
20260506190206 67 236 4.3 12.2 0.00 0.00 0.00 57 1006.3
20260506185706 67 196 4.3 12.2 0.00 0.00 0.00 56 1006.3
20260506184206 67 171 2.6 9.6 0.00 0.00 0.00 55 1006.1
20260506183705 67 209 3.5 13.9 0.00 0.00 0.00 55 1006.1
20260506182705 68 169 4.3 13.9 0.00 0.00 0.00 53 1006.0
20260506182205 68 225 4.3 13.0 0.00 0.00 0.00 53 1005.9
20260506181705 68 212 5.2 13.0 0.00 0.00 0.00 53 1005.9
20260506181205 68 215 5.2 13.9 0.00 0.00 0.00 52 1005.8
20260506180206 68 210 3.5 13.9 0.00 0.00 0.00 51 1006.0
20260506175706 68 194 1.7 12.2 0.00 0.00 0.00 51 1005.9
20260506175205 68 172 2.6 12.2 0.00 0.00 0.00 51 1005.9
20260506174705 68 263 3.5 12.2 0.00 0.00 0.00 51 1006.0
20260506174206 69 238 2.6 11.3 0.00 0.00 0.00 51 1006.0
20260506173706 69 209 3.5 14.8 0.00 0.00 0.00 51 1006.0
20260506173205 69 165 5.2 14.8 0.00 0.00 0.00 51 1006.0
20260506172706 69 177 6.1 14.8 0.00 0.00 0.00 51 1006.0
20260506172205 69 194 4.3 13.9 0.00 0.00 0.00 51 1006.0
20260506171705 69 223 5.2 13.9 0.00 0.00 0.00 51 1006.1
20260506171206 69 190 7.0 13.9 0.00 0.00 0.00 51 1006.2
20260506170705 69 175 5.2 10.4 0.00 0.00 0.00 51 1006.3
20260506170206 69 173 4.3 10.4 0.00 0.00 0.00 52 1006.3
20260506165705 69 209 4.3 10.4 0.00 0.00 0.00 52 1006.3
20260506165205 69 168 3.5 10.4 0.00 0.00 0.00 52 1006.4
20260506164705 70 153 3.5 11.3 0.00 0.00 0.00 52 1006.4
20260506164206 70 163 4.3 11.3 0.00 0.00 0.00 52 1006.3
20260506163705 70 164 4.3 10.4 0.00 0.00 0.00 52 1006.4
20260506163206 70 155 4.3 10.4 0.00 0.00 0.00 52 1006.3
20260506162705 70 213 3.5 7.0 0.00 0.00 0.00 51 1006.4
20260506162227 70 223 2.6 12.2 0.00 0.00 0.00 51 1006.4
20260506161717 70 194 2.6 14.8 0.00 0.00 0.00 51 1006.5
20260506161208 71 210 5.2 14.8 0.00 0.00 0.00 50 1006.5
20260506160705 71 209 6.1 14.8 0.00 0.00 0.00 49 1006.4
20260506160231 71 205 5.2 15.6 0.00 0.00 0.00 49 1006.5
20260506155730 71 185 5.2 17.4 0.00 0.00 0.00 49 1006.6
20260506155205 71 189 7.0 17.4 0.00 0.00 0.00 49 1006.6
20260506153705 72 168 7.0 20.9 0.00 0.00 0.00 48 1006.8
20260506153205 72 217 7.0 15.6 0.00 0.00 0.00 48 1006.7
20260506152705 72 229 6.1 16.5 0.00 0.00 0.00 49 1006.8
20260506152205 72 221 5.2 16.5 0.00 0.00 0.00 50 1006.8
20260506151706 71 190 5.2 16.5 0.00 0.00 0.00 50 1006.9
20260506151206 71 155 5.2 16.5 0.00 0.00 0.00 50 1006.8
20260506150706 72 213 4.3 16.5 0.00 0.00 0.00 48 1006.8
20260506150205 72 214 6.1 18.2 0.00 0.00 0.00 49 1007.0
20260506145705 72 149 7.8 18.2 0.00 0.00 0.00 49 1006.9
20260506145206 73 182 6.1 18.2 0.00 0.00 0.00 48 1007.0
20260506144207 73 197 4.3 13.0 0.00 0.00 0.00 49 1007.0
20260506143705 73 201 5.2 13.0 0.00 0.00 0.00 49 1007.0
20260506142705 74 235 6.1 15.6 0.00 0.00 0.00 47 1007.1
20260506142205 74 205 7.8 15.6 0.00 0.00 0.00 47 1007.1
20260506141705 73 212 8.7 15.6 0.00 0.00 0.00 48 1007.1
20260506141206 73 223 6.1 11.3 0.00 0.00 0.00 48 1007.1
20260506140705 73 203 4.3 11.3 0.00 0.00 0.00 48 1007.1
20260506140222 74 238 3.5 12.2 0.00 0.00 0.00 47 1007.0
20260506135706 74 224 4.3 12.2 0.00 0.00 0.00 47 1007.1
20260506135205 73 227 4.3 12.2 0.00 0.00 0.00 49 1007.0
20260506134705 72 227 4.3 9.6 0.00 0.00 0.00 49 1007.1
20260506134206 72 225 5.2 9.6 0.00 0.00 0.00 48 1007.1
20260506133205 73 202 4.3 12.2 0.00 0.00 0.00 48 1007.1
20260506132705 73 225 4.3 14.8 0.00 0.00 0.00 48 1007.0
20260506131721 74 186 5.2 14.8 0.00 0.00 0.00 47 1007.0
20260506131205 73 218 3.5 10.4 0.00 0.00 0.00 46 1007.0
20260506130205 74 220 4.3 10.4 0.00 0.00 0.00 46 1007.0
20260506125705 74 227 4.3 8.7 0.00 0.00 0.00 46 1007.0
20260506125205 75 202 3.5 8.7 0.00 0.00 0.00 44 1007.1
20260506124705 76 204 2.6 7.8 0.00 0.00 0.00 44 1007.0
20260506124205 76 227 2.6 7.8 0.00 0.00 0.00 45 1007.1
20260506123705 76 169 2.6 7.8 0.00 0.00 0.00 42 1007.0
20260506123206 77 214 1.7 10.4 0.00 0.00 0.00 43 1007.0
20260506122705 76 262 2.6 10.4 0.00 0.00 0.00 43 1007.0
20260506122205 77 205 2.6 9.6 0.00 0.00 0.00 43 1007.2
20260506121706 76 265 2.6 8.7 0.00 0.00 0.00 43 1007.2
20260506120205 75 198 2.6 7.8 0.00 0.00 0.00 44 1007.2
20260506115705 74 167 2.6 7.8 0.00 0.00 0.00 46 1007.2
20260506115206 74 246 2.6 8.7 0.00 0.00 0.00 46 1007.3
20260506114706 74 246 2.6 8.7 0.00 0.00 0.00 46 1007.2
20260506114206 74 215 2.6 8.7 0.00 0.00 0.00 45 1007.2
20260506113706 74 224 2.6 8.7 0.00 0.00 0.00 45 1007.3
20260506113206 75 205 2.6 7.0 0.00 0.00 0.00 44 1007.2
20260506112705 75 249 1.7 10.4 0.00 0.00 0.00 45 1007.3
20260506112205 76 223 2.6 10.4 0.00 0.00 0.00 45 1007.3
20260506111705 76 275 3.5 9.6 0.00 0.00 0.00 45 1007.4
20260506111205 75 225 3.5 8.7 0.00 0.00 0.00 45 1007.4
20260506110731 76 216 2.6 9.6 0.00 0.00 0.00 45 1007.5
20260506110206 76 257 1.7 9.6 0.00 0.00 0.00 45 1007.4
20260506105705 76 282 1.7 9.6 0.00 0.00 0.00 46 1007.4
20260506105205 76 214 1.7 7.0 0.00 0.00 0.00 46 1007.4
20260506103706 76 234 1.7 5.2 0.00 0.00 0.00 45 1007.6
20260506103205 76 238 1.7 6.1 0.00 0.00 0.00 45 1007.5
20260506102705 76 252 0.9 9.6 0.00 0.00 0.00 45 1007.5
20260506102206 75 236 0.9 9.6 0.00 0.00 0.00 45 1007.5
20260506101205 75 191 1.7 1.7 0.00 0.00 0.00 47 1007.6
20260506095706 74 233 0.9 6.1 0.00 0.00 0.00 47 1007.9
20260506095205 74 221 0.9 6.1 0.00 0.00 0.00 47 1007.9
20260506094706 74 223 1.7 5.2 0.00 0.00 0.00 48 1007.9
20260506094205 74 279 1.7 5.2 0.00 0.00 0.00 49 1007.7
20260506093206 73 196 0.9 6.1 0.00 0.00 0.00 51 1007.9
20260506092705 73 226 0.9 6.1 0.00 0.00 0.00 49 1007.9
20260506092205 72 242 0.0 5.2 0.00 0.00 0.00 50 1007.9
20260506091205 71 217 1.7 8.7 0.00 0.00 0.00 52 1007.9
20260506090705 71 204 1.7 8.7 0.00 0.00 0.00 51 1007.7
20260506090205 71 194 1.7 6.1 0.00 0.00 0.00 51 1007.7
20260506085705 71 186 0.9 7.8 0.00 0.00 0.00 52 1007.7
20260506085206 71 221 1.7 7.8 0.00 0.00 0.00 53 1007.9
20260506084706 71 225 0.9 7.8 0.00 0.00 0.00 53 1007.9
20260506084206 71 215 0.9 6.1 0.00 0.00 0.00 54 1007.9
20260506083205 70 282 0.9 7.8 0.00 0.00 0.00 54 1008.0
20260506082706 69 236 1.7 7.8 0.00 0.00 0.00 54 1008.0
20260506082205 69 252 1.7 7.0 0.00 0.00 0.00 54 1007.9
20260506081205 70 192 1.7 6.1 0.00 0.00 0.00 55 1008.0
20260506080706 69 249 2.6 6.1 0.00 0.00 0.00 54 1008.1
20260506080205 69 294 1.7 6.1 0.00 0.00 0.00 55 1008.0
20260506072705 68 217 0.9 5.2 0.00 0.00 0.00 57 1008.0
20260506072205 67 187 0.9 5.2 0.00 0.00 0.00 57 1008.1
20260506071705 67 217 0.9 3.5 0.00 0.00 0.00 59 1008.1
20260506071205 67 296 0.9 4.3 0.00 0.00 0.00 59 1008.1
20260506070705 66 295 0.9 4.3 0.00 0.00 0.00 59 1008.0
20260506070205 66 299 0.9 4.3 0.00 0.00 0.00 59 1008.0
20260506062205 63 54 0.0 5.2 0.00 0.00 0.00 64 1008.0
20260506061223 63 75 0.9 5.2 0.00 0.00 0.00 64 1007.9
20260506060726 63 113 0.9 3.5 0.00 0.00 0.00 64 1007.9
20260506051205 55 259 0.0 0.9 0.00 0.00 0.00 77 1007.9
20260506050705 55 259 0.0 0.0 0.00 0.00 0.00 77 1007.7
20260506050205 55 259 0.0 0.0 0.00 0.00 0.00 77 1007.7
20260506044705 54 259 0.0 0.9 0.00 0.00 0.00 78 1007.7
20260506044205 54 259 0.0 0.9 0.00 0.00 0.00 77 1007.7
20260506043705 54 259 0.0 0.0 0.00 0.00 0.00 77 1007.6
20260506043205 54 260 0.0 0.0 0.00 0.00 0.00 77 1007.6
20260506042705 54 260 0.0 0.0 0.00 0.00 0.00 76 1007.5
20260506042206 54 260 0.0 0.0 0.00 0.00 0.00 76 1007.5
20260506040706 55 228 0.0 1.7 0.00 0.00 0.00 75 1007.3
20260506040205 55 228 0.0 1.7 0.00 0.00 0.00 75 1007.2
20260506035705 55 228 0.0 5.2 0.00 0.00 0.00 74 1007.3
20260506035205 55 227 0.0 5.2 0.00 0.00 0.00 74 1007.1
20260506034706 55 227 0.0 5.2 0.00 0.00 0.00 74 1007.1
20260506034205 55 232 0.0 2.6 0.00 0.00 0.00 74 1007.1
20260506033705 55 221 0.0 2.6 0.00 0.00 0.00 73 1007.1
20260506033205 56 244 0.0 1.7 0.00 0.00 0.00 73 1007.2
20260506032705 56 259 0.0 1.7 0.00 0.00 0.00 72 1007.2
20260506032206 56 271 0.0 3.5 0.00 0.00 0.00 72 1007.2
20260506031705 56 232 0.0 10.4 0.00 0.00 0.00 72 1007.2
20260506031205 56 229 0.9 10.4 0.00 0.00 0.00 71 1007.1
20260506030706 56 238 0.9 10.4 0.00 0.00 0.00 71 1007.1
20260506030205 57 250 0.9 5.2 0.00 0.00 0.00 70 1007.1
20260506025706 57 265 0.9 5.2 0.00 0.00 0.00 70 1007.0
20260506025205 57 233 0.9 5.2 0.00 0.00 0.00 70 1007.0
20260506024705 57 279 0.9 4.3 0.00 0.00 0.00 69 1006.9
20260506024206 57 259 0.9 4.3 0.00 0.00 0.00 69 1006.8
20260506023705 58 261 0.9 3.5 0.00 0.00 0.00 69 1006.8
20260506023205 58 279 0.9 6.1 0.00 0.00 0.00 68 1006.8
20260506021205 58 216 2.6 9.6 0.00 0.00 0.00 68 1006.9
20260506020705 58 219 2.6 9.6 0.00 0.00 0.00 68 1006.8
20260506015706 58 217 0.9 6.1 0.00 0.00 0.00 67 1007.0
20260506015205 58 209 0.9 7.8 0.00 0.00 0.00 67 1007.0
20260506014705 59 218 1.7 7.8 0.00 0.00 0.00 67 1007.0
20260506014205 59 213 2.6 7.8 0.00 0.00 0.00 66 1006.9
20260506013705 59 220 2.6 7.8 0.00 0.00 0.00 66 1006.8
20260506013205 59 192 1.7 9.6 0.00 0.00 0.00 66 1006.9
20260506011706 59 244 2.6 10.4 0.00 0.00 0.00 65 1006.9
20260506011206 59 205 1.7 7.0 0.00 0.00 0.00 65 1006.9
20260506010205 59 232 0.9 5.2 0.00 0.00 0.00 64 1006.8
20260506005705 60 220 0.9 6.1 0.00 0.00 0.00 64 1006.8
20260506005206 60 221 1.7 9.6 0.00 0.00 0.00 63 1006.7
20260506004206 60 219 2.6 10.4 0.00 0.00 0.00 63 1006.7
20260506003705 60 198 3.5 10.4 0.00 0.00 0.00 63 1006.7
20260506003205 60 229 3.5 10.4 0.00 0.00 0.00 62 1006.8
20260506002705 60 216 3.5 10.4 0.00 0.00 0.00 62 1006.8
20260506002205 60 215 1.7 7.8 0.00 0.00 0.00 61 1006.8
20260506001705 60 234 0.9 2.6 0.00 0.00 0.00 60 1006.9
20260506000731 61 226 0.0 3.5 0.00 0.00 0.00 59 1007.0
20260506000205 61 214 0.0 12.2 0.00 0.00 0.00 59 1007.0
20260505235705 61 258 0.9 12.2 0.00 0.00 0.00 58 1007.0
20260505235205 61 238 2.6 12.2 0.00 0.00 0.00 58 1007.0
20260505234706 61 220 3.5 10.4 0.00 0.00 0.00 58 1006.9
20260505234206 61 192 2.6 11.3 0.00 0.00 0.00 58 1006.9
20260505233705 61 217 3.5 11.3 0.00 0.00 0.00 58 1006.8
20260505233205 61 222 3.5 11.3 0.00 0.00 0.00 58 1006.8
20260505232706 61 210 3.5 9.6 0.00 0.00 0.00 57 1006.8
20260505232205 61 212 3.5 8.7 0.00 0.00 0.00 57 1006.9
20260505231705 61 173 1.7 5.2 0.00 0.00 0.00 57 1007.0
20260505231206 61 201 0.9 5.2 0.00 0.00 0.00 57 1007.0
20260505230706 61 211 1.7 6.1 0.00 0.00 0.00 56 1007.1
20260505230205 61 232 0.9 6.1 0.00 0.00 0.00 56 1007.1
20260505225705 62 218 0.9 6.1 0.00 0.00 0.00 55 1007.0
20260505225205 62 231 0.0 5.2 0.00 0.00 0.00 54 1006.9
20260505224705 62 232 0.0 9.6 0.00 0.00 0.00 53 1007.0